Location: Zagreb
(45.8000°N, 16.0000°E)
Time: 22:34:11
(UTC+02:00)

S-56A Canister/Altair - All Passes

Search period start: 09 August 2022 00:00
Search period end: 19 August 2022 00:00
Orbit: 635 x 2498 km, 38.9° (Epoch: 08 August)

Date Brightness Start Highest point End Pass type
(mag) Time Alt. Az. Time Alt. Az. Time Alt. Az.
09 Aug - 01:49:23 10° W 02:00:10 27° SW 02:08:54 10° S visible
09 Aug - 16:57:09 10° S 17:06:22 25° SE 17:17:03 10° E daylight
09 Aug - 18:57:54 10° SW 19:10:34 51° SSE 19:24:49 10° E daylight
09 Aug - 21:02:08 10° WSW 21:16:33 66° S 21:30:41 10° E visible
09 Aug - 23:08:04 10° W 23:22:40 57° SSW 23:35:07 10° SE visible
10 Aug - 01:15:24 10° W 01:27:11 31° SW 01:36:48 10° SSE visible
10 Aug - 16:25:15 10° S 16:33:24 21° SE 16:42:53 10° E daylight
10 Aug - 18:25:10 10° SW 18:37:13 48° SSE 18:51:16 10° E daylight
10 Aug - 20:28:57 10° WSW 20:42:59 66° S 20:57:27 10° E visible
10 Aug - 22:34:35 10° W 22:49:13 60° SSW 23:02:16 10° ESE visible
11 Aug - 00:41:32 10° W 00:54:07 35° SW 01:04:32 10° SSE visible
11 Aug - 15:53:38 10° SSE 16:00:31 18° SE 16:08:29 10° E daylight
11 Aug - 17:52:33 10° SW 18:03:56 45° SSE 18:17:39 10° E daylight
11 Aug - 19:55:53 10° WSW 20:09:26 65° S 20:24:08 10° E daylight
11 Aug - 22:01:11 10° W 22:15:43 62° SSW 22:29:19 10° ESE visible
12 Aug - 00:07:47 10° W 00:20:57 39° SW 00:32:07 10° SSE visible
12 Aug - 02:18:48 10° WSW 02:24:01 13° SW 02:28:49 10° SSW visible
12 Aug - 15:22:28 10° SSE 15:27:43 14° SE 15:33:39 10° E daylight
12 Aug - 17:20:03 10° SSW 17:30:43 41° SE 17:43:57 10° E daylight
12 Aug - 19:22:55 10° WSW 19:35:55 63° SSE 19:50:44 10° E daylight
12 Aug - 21:27:53 10° W 21:42:11 64° S 21:56:15 10° ESE visible
12 Aug - 23:34:09 10° W 23:47:42 42° SSW 23:59:36 10° SSE visible
13 Aug - 01:43:42 10° W 01:51:10 16° SW 01:57:54 10° SSW visible
13 Aug - 14:52:30 10° SE 14:55:00 11° ESE 14:57:39 10° ESE daylight
13 Aug - 16:47:42 10° SSW 16:57:36 37° SE 17:10:09 10° E daylight
13 Aug - 18:50:02 10° WSW 19:02:26 61° SSE 19:17:13 10° E daylight
13 Aug - 20:54:39 10° W 21:08:39 65° S 21:23:05 10° ESE visible
13 Aug - 23:00:35 10° W 23:14:23 46° SSW 23:26:55 10° SE visible
14 Aug - 01:09:10 10° W 01:18:15 20° SW 01:26:24 10° S visible
14 Aug - 16:15:27 10° SSW 16:24:35 33° SE 16:36:16 10° E daylight
14 Aug - 18:17:16 10° WSW 18:29:02 59° SSE 18:43:39 10° E daylight
14 Aug - 20:21:32 10° W 20:35:05 66° S 20:49:49 10° ESE visible
14 Aug - 22:27:08 10° W 22:41:00 49° SSW 22:54:08 10° SE visible
15 Aug - 00:34:57 10° W 00:45:15 23° SW 00:54:32 10° S visible
15 Aug - 15:43:22 10° S 15:51:39 28° SE 16:02:18 10° E daylight
15 Aug - 17:44:36 10° SW 17:55:42 56° SSE 18:10:01 10° E daylight
15 Aug - 19:48:30 10° W 20:01:33 66° S 20:16:27 10° ESE daylight
15 Aug - 21:53:47 10° W 22:07:35 52° SSW 22:21:13 10° SE visible
16 Aug - 00:00:59 10° W 00:12:10 26° SW 00:22:25 10° S visible
16 Aug - 15:11:26 10° S 15:18:50 24° SE 15:28:14 10° E daylight
16 Aug - 17:12:02 10° SW 17:22:28 52° SSE 17:36:19 10° E daylight
16 Aug - 19:15:34 10° WSW 19:28:02 66° S 19:43:00 10° ESE daylight
16 Aug - 21:20:32 10° W 21:34:07 54° SSW 21:48:11 10° SE visible
16 Aug - 23:27:12 10° W 23:39:00 30° SW 23:50:07 10° S visible
17 Aug - 14:39:42 10° S 14:46:05 20° SE 14:54:02 10° E daylight
17 Aug - 16:39:33 10° SW 16:49:18 48° SSE 17:02:34 10° E daylight
17 Aug - 18:42:42 10° WSW 18:54:35 65° S 19:09:28 10° E daylight
17 Aug - 20:47:23 10° W 21:00:38 57° SSW 21:15:03 10° SE visible
17 Aug - 22:53:34 10° W 23:05:47 33° SW 23:17:38 10° SSE visible
18 Aug - 14:08:17 10° SSE 14:13:26 16° SE 14:19:36 10° E daylight
18 Aug - 16:07:11 10° SW 16:16:15 44° SSE 16:28:47 10° E daylight
18 Aug - 18:09:57 10° WSW 18:21:11 64° S 18:35:51 10° E daylight
18 Aug - 20:14:20 10° W 20:27:09 59° SSW 20:41:47 10° ESE visible
18 Aug - 22:20:06 10° W 22:32:30 36° SW 22:44:59 10° SSE visible
